User: anonymous   Login
Location: Croydon
(51.3762°N, 0.0982°W)
Time: 07:27:11
(UTC+00:00)
Language:

Tiros 1 despin weight - Orbit

View from above orbital plane
View from above orbital plane
View from above satellite
View from above satellite

Ground track
Ground track

The orbit data is extracted from the following two-line orbital elements,

1   115U 60002D   19318.19516723  .00000019  00000-0  29488-4 0  9996
2   115  48.1665 234.0698 0034634  14.9195 345.2732 14.83507215180865
Epoch (UTC): 14 November 2019 04:41:02
Eccentricity: 0.0034634
inclination: 48.1665°
perigee height: 594 km
apogee height: 642 km
right ascension of ascending node: 234.0698°
argument of perigee: 14.9195°
revolutions per day: 14.83507215
mean anomaly at epoch: 345.2732°
orbit number at epoch: 18086

The dashed part of the orbit path shows where the satellite is in the earth's shadow,  

DLR